Location: Unspecified
(38.3847°N, 0.7745°W)
Time: 09:26:01
(UTC+00:00)

Envisat - Visible Passes

Search period start: 03 March 2024 00:00
Search period end: 13 March 2024 00:00
Orbit: 762 x 764 km, 98.3° (Epoch: 02 March)

Date Brightness Start Highest point End Pass type
(mag) Time Alt. Az. Time Alt. Az. Time Alt. Az.
03 Mar 4.9 04:10:03 10° N 04:11:25 18° NNW 04:11:25 18° NNW visible
04 Mar 5.1 03:32:27 10° NNE 03:33:49 19° NNE 03:33:49 19° NNE visible
05 Mar 5.7 02:55:25 10° NNE 02:56:14 14° NNE 02:56:14 14° NNE visible
05 Mar 4.9 04:35:01 10° NNW 04:36:24 16° NNW 04:36:24 16° NNW visible
06 Mar 4.7 03:56:58 10° N 03:58:48 22° N 03:58:48 22° N visible
07 Mar 5.1 03:19:34 10° NNE 03:21:13 21° NNE 03:21:13 21° NNE visible
07 Mar 5.0 05:00:35 10° NNW 05:01:23 12° NW 05:01:23 12° NW visible
08 Mar 5.7 02:42:46 10° NE 02:43:37 14° NE 02:43:37 14° NE visible
08 Mar 4.6 04:21:45 10° N 04:23:47 21° NNW 04:23:47 21° NNW visible
09 Mar 4.6 03:43:58 10° N 03:46:12 26° N 03:46:12 26° N visible
10 Mar 5.1 03:06:45 10° NNE 03:08:36 22° NNE 03:08:36 22° NNE visible
10 Mar 4.8 04:46:56 10° NNW 04:48:46 16° NW 04:48:46 16° NW visible
11 Mar 5.8 02:30:15 10° NE 02:31:01 13° NE 02:31:01 13° NE visible
11 Mar 4.3 04:08:36 10° N 04:11:11 26° NNW 04:11:11 26° NNW visible
12 Mar 4.4 03:31:01 10° NNE 03:33:35 31° NNE 03:33:35 31° NNE visible
